<?xml version="1.0" encoding="UTF-8" standalone="no" ?>
<gpx xmlns="http://www.topografix.com/GPX/1/1" xmlns:xsi="http://www.w3.org/2001/XMLSchema-instance" xsi:schemaLocation="http://www.topografix.com/GPX/1/1 http://www.topografix.com/GPX/1/1/gpx.xsd" version="1.1" creator="VisuGPX - https://www.visugpx.com">
  <metadata>
    <name>Circuit 28kms Trail de Pécharmant 2012</name>
    <desc><![CDATA[Nouveau circuit de 28kms pour le Trail de Pécharmant 2012]]></desc>
  </metadata>
  <trk>
    <name><![CDATA[Circuit 28kms Trail de Pécharmant 2012_1]]></name>
    <trkseg>
      <trkpt lat="44.8653" lon="0.54016">
        <ele>74.2</ele>
        <time>2011-10-16T05:13:25Z</time>
      </trkpt>
      <trkpt lat="44.86443" lon="0.54127">
        <ele>69.3</ele>
        <time>2011-10-16T05:13:25Z</time>
      </trkpt>
      <trkpt lat="44.86269" lon="0.54102">
        <ele>59.7</ele>
        <time>2011-10-16T05:13:25Z</time>
      </trkpt>
      <trkpt lat="44.86157" lon="0.54145">
        <ele>60.4</ele>
        <time>2011-10-16T05:13:25Z</time>
      </trkpt>
      <trkpt lat="44.86257" lon="0.54315">
        <ele>70.5</ele>
        <time>2011-10-16T05:13:25Z</time>
      </trkpt>
      <trkpt lat="44.8641" lon="0.54399">
        <ele>78.8</ele>
        <time>2011-10-16T05:13:25Z</time>
      </trkpt>
      <trkpt lat="44.86551" lon="0.54456">
        <ele>81</ele>
        <time>2011-10-16T05:13:25Z</time>
      </trkpt>
      <trkpt lat="44.86598" lon="0.54666">
        <ele>83.5</ele>
        <time>2011-10-16T05:13:25Z</time>
      </trkpt>
      <trkpt lat="44.86689" lon="0.5483">
        <ele>86.8</ele>
        <time>2011-10-16T05:13:25Z</time>
      </trkpt>
      <trkpt lat="44.8685" lon="0.54917">
        <ele>92.6</ele>
        <time>2011-10-16T05:13:25Z</time>
      </trkpt>
      <trkpt lat="44.86968" lon="0.55077">
        <ele>93.2</ele>
        <time>2011-10-16T05:13:25Z</time>
      </trkpt>
      <trkpt lat="44.86982" lon="0.55255">
        <ele>93.8</ele>
        <time>2011-10-16T05:13:25Z</time>
      </trkpt>
      <trkpt lat="44.86893" lon="0.55419">
        <ele>91.2</ele>
        <time>2011-10-16T05:13:25Z</time>
      </trkpt>
      <trkpt lat="44.86992" lon="0.5559">
        <ele>90.5</ele>
        <time>2011-10-16T05:13:25Z</time>
      </trkpt>
      <trkpt lat="44.87082" lon="0.55801">
        <ele>90.2</ele>
        <time>2011-10-16T05:13:25Z</time>
      </trkpt>
      <trkpt lat="44.87156" lon="0.56006">
        <ele>82.9</ele>
        <time>2011-10-16T05:13:25Z</time>
      </trkpt>
      <trkpt lat="44.87309" lon="0.55931">
        <ele>88.6</ele>
        <time>2011-10-16T05:13:25Z</time>
      </trkpt>
      <trkpt lat="44.87406" lon="0.56088">
        <ele>89.5</ele>
        <time>2011-10-16T05:13:25Z</time>
      </trkpt>
      <trkpt lat="44.87476" lon="0.56236">
        <ele>93.9</ele>
        <time>2011-10-16T05:13:25Z</time>
      </trkpt>
      <trkpt lat="44.87532" lon="0.56385">
        <ele>102.7</ele>
        <time>2011-10-16T05:13:25Z</time>
      </trkpt>
      <trkpt lat="44.87589" lon="0.56534">
        <ele>106</ele>
        <time>2011-10-16T05:13:25Z</time>
      </trkpt>
      <trkpt lat="44.8756" lon="0.56682">
        <ele>110.5</ele>
        <time>2011-10-16T05:13:25Z</time>
      </trkpt>
      <trkpt lat="44.8771" lon="0.56809">
        <ele>112.1</ele>
        <time>2011-10-16T05:13:25Z</time>
      </trkpt>
      <trkpt lat="44.87843" lon="0.56972">
        <ele>113.7</ele>
        <time>2011-10-16T05:13:25Z</time>
      </trkpt>
      <trkpt lat="44.87983" lon="0.56919">
        <ele>101</ele>
        <time>2011-10-16T05:13:25Z</time>
      </trkpt>
      <trkpt lat="44.88128" lon="0.56799">
        <ele>87.4</ele>
        <time>2011-10-16T05:13:25Z</time>
      </trkpt>
      <trkpt lat="44.88266" lon="0.56759">
        <ele>73.1</ele>
        <time>2011-10-16T05:13:25Z</time>
      </trkpt>
      <trkpt lat="44.88378" lon="0.56844">
        <ele>60.4</ele>
        <time>2011-10-16T05:13:25Z</time>
      </trkpt>
      <trkpt lat="44.88397" lon="0.57029">
        <ele>67.3</ele>
        <time>2011-10-16T05:13:25Z</time>
      </trkpt>
      <trkpt lat="44.88459" lon="0.57202">
        <ele>78.4</ele>
        <time>2011-10-16T05:13:25Z</time>
      </trkpt>
      <trkpt lat="44.88466" lon="0.57341">
        <ele>78.9</ele>
        <time>2011-10-16T05:13:25Z</time>
      </trkpt>
      <trkpt lat="44.88476" lon="0.5751">
        <ele>76.5</ele>
        <time>2011-10-16T05:13:25Z</time>
      </trkpt>
      <trkpt lat="44.88491" lon="0.5761">
        <ele>76.2</ele>
        <time>2011-10-16T05:13:25Z</time>
      </trkpt>
      <trkpt lat="44.88411" lon="0.57745">
        <ele>90.4</ele>
        <time>2011-10-16T05:13:25Z</time>
      </trkpt>
      <trkpt lat="44.88254" lon="0.57786">
        <ele>101.2</ele>
        <time>2011-10-16T05:13:25Z</time>
      </trkpt>
      <trkpt lat="44.88115" lon="0.57863">
        <ele>114.6</ele>
        <time>2011-10-16T05:13:25Z</time>
      </trkpt>
      <trkpt lat="44.87953" lon="0.57936">
        <ele>121</ele>
        <time>2011-10-16T05:13:25Z</time>
      </trkpt>
      <trkpt lat="44.88038" lon="0.58101">
        <ele>110.5</ele>
        <time>2011-10-16T05:13:25Z</time>
      </trkpt>
      <trkpt lat="44.88124" lon="0.58288">
        <ele>108.2</ele>
        <time>2011-10-16T05:13:25Z</time>
      </trkpt>
      <trkpt lat="44.88199" lon="0.58471">
        <ele>117.9</ele>
        <time>2011-10-16T05:13:25Z</time>
      </trkpt>
      <trkpt lat="44.88228" lon="0.58687">
        <ele>99.1</ele>
        <time>2011-10-16T05:13:25Z</time>
      </trkpt>
      <trkpt lat="44.88222" lon="0.5889">
        <ele>95.2</ele>
        <time>2011-10-16T05:13:25Z</time>
      </trkpt>
      <trkpt lat="44.88134" lon="0.59089">
        <ele>101.2</ele>
        <time>2011-10-16T05:13:25Z</time>
      </trkpt>
      <trkpt lat="44.88127" lon="0.59305">
        <ele>113</ele>
        <time>2011-10-16T05:13:25Z</time>
      </trkpt>
      <trkpt lat="44.88069" lon="0.59514">
        <ele>118.3</ele>
        <time>2011-10-16T05:13:25Z</time>
      </trkpt>
      <trkpt lat="44.87972" lon="0.59711">
        <ele>121.4</ele>
        <time>2011-10-16T05:13:25Z</time>
      </trkpt>
      <trkpt lat="44.88063" lon="0.59769">
        <ele>118.8</ele>
        <time>2011-10-16T05:13:25Z</time>
      </trkpt>
      <trkpt lat="44.88212" lon="0.59879">
        <ele>115.5</ele>
        <time>2011-10-16T05:13:25Z</time>
      </trkpt>
      <trkpt lat="44.88375" lon="0.5987">
        <ele>111.2</ele>
        <time>2011-10-16T05:13:25Z</time>
      </trkpt>
      <trkpt lat="44.88503" lon="0.60002">
        <ele>105.5</ele>
        <time>2011-10-16T05:13:25Z</time>
      </trkpt>
      <trkpt lat="44.88554" lon="0.60218">
        <ele>114.2</ele>
        <time>2011-10-16T05:13:25Z</time>
      </trkpt>
      <trkpt lat="44.88607" lon="0.60366">
        <ele>110.3</ele>
        <time>2011-10-16T05:13:25Z</time>
      </trkpt>
      <trkpt lat="44.88762" lon="0.60483">
        <ele>102.6</ele>
        <time>2011-10-16T05:13:25Z</time>
      </trkpt>
      <trkpt lat="44.88661" lon="0.60648">
        <ele>112</ele>
        <time>2011-10-16T05:13:25Z</time>
      </trkpt>
      <trkpt lat="44.8852" lon="0.60791">
        <ele>105.9</ele>
        <time>2011-10-16T05:13:25Z</time>
      </trkpt>
      <trkpt lat="44.88359" lon="0.60865">
        <ele>107.4</ele>
        <time>2011-10-16T05:13:25Z</time>
      </trkpt>
      <trkpt lat="44.88198" lon="0.60927">
        <ele>111.9</ele>
        <time>2011-10-16T05:13:25Z</time>
      </trkpt>
      <trkpt lat="44.88133" lon="0.61115">
        <ele>116.1</ele>
        <time>2011-10-16T05:13:25Z</time>
      </trkpt>
      <trkpt lat="44.88116" lon="0.61324">
        <ele>110.9</ele>
        <time>2011-10-16T05:13:25Z</time>
      </trkpt>
      <trkpt lat="44.88028" lon="0.61512">
        <ele>116</ele>
        <time>2011-10-16T05:13:25Z</time>
      </trkpt>
      <trkpt lat="44.87933" lon="0.61565">
        <ele>123</ele>
        <time>2011-10-16T05:13:25Z</time>
      </trkpt>
      <trkpt lat="44.87812" lon="0.61601">
        <ele>128.3</ele>
        <time>2011-10-16T05:13:25Z</time>
      </trkpt>
      <trkpt lat="44.87744" lon="0.61815">
        <ele>131.7</ele>
        <time>2011-10-16T05:13:25Z</time>
      </trkpt>
      <trkpt lat="44.87622" lon="0.61898">
        <ele>131</ele>
        <time>2011-10-16T05:13:25Z</time>
      </trkpt>
      <trkpt lat="44.87596" lon="0.61998">
        <ele>128.5</ele>
        <time>2011-10-16T05:13:25Z</time>
      </trkpt>
      <trkpt lat="44.87423" lon="0.62018">
        <ele>123.1</ele>
        <time>2011-10-16T05:13:25Z</time>
      </trkpt>
      <trkpt lat="44.87261" lon="0.62046">
        <ele>113.2</ele>
        <time>2011-10-16T05:13:25Z</time>
      </trkpt>
      <trkpt lat="44.87154" lon="0.62112">
        <ele>113.2</ele>
        <time>2011-10-16T05:13:25Z</time>
      </trkpt>
      <trkpt lat="44.87278" lon="0.62279">
        <ele>130</ele>
        <time>2011-10-16T05:13:25Z</time>
      </trkpt>
      <trkpt lat="44.87322" lon="0.62508">
        <ele>131.7</ele>
        <time>2011-10-16T05:13:25Z</time>
      </trkpt>
      <trkpt lat="44.87274" lon="0.62633">
        <ele>132</ele>
        <time>2011-10-16T05:13:25Z</time>
      </trkpt>
      <trkpt lat="44.87124" lon="0.62719">
        <ele>127.3</ele>
        <time>2011-10-16T05:13:25Z</time>
      </trkpt>
      <trkpt lat="44.86998" lon="0.62799">
        <ele>123.9</ele>
        <time>2011-10-16T05:13:25Z</time>
      </trkpt>
      <trkpt lat="44.86975" lon="0.63016">
        <ele>114.7</ele>
        <time>2011-10-16T05:13:25Z</time>
      </trkpt>
      <trkpt lat="44.86934" lon="0.63232">
        <ele>107.5</ele>
        <time>2011-10-16T05:13:25Z</time>
      </trkpt>
      <trkpt lat="44.8684" lon="0.6338">
        <ele>100.2</ele>
        <time>2011-10-16T05:13:25Z</time>
      </trkpt>
      <trkpt lat="44.86713" lon="0.63447">
        <ele>107.9</ele>
        <time>2011-10-16T05:13:25Z</time>
      </trkpt>
      <trkpt lat="44.86553" lon="0.63508">
        <ele>127.3</ele>
        <time>2011-10-16T05:13:25Z</time>
      </trkpt>
      <trkpt lat="44.86391" lon="0.63552">
        <ele>120.4</ele>
        <time>2011-10-16T05:13:25Z</time>
      </trkpt>
      <trkpt lat="44.86229" lon="0.63586">
        <ele>105.9</ele>
        <time>2011-10-16T05:13:25Z</time>
      </trkpt>
      <trkpt lat="44.86072" lon="0.63644">
        <ele>95</ele>
        <time>2011-10-16T05:13:25Z</time>
      </trkpt>
      <trkpt lat="44.85903" lon="0.63695">
        <ele>75.6</ele>
        <time>2011-10-16T05:13:25Z</time>
      </trkpt>
      <trkpt lat="44.85742" lon="0.63738">
        <ele>75.2</ele>
        <time>2011-10-16T05:13:25Z</time>
      </trkpt>
      <trkpt lat="44.85577" lon="0.63744">
        <ele>60.5</ele>
        <time>2011-10-16T05:13:25Z</time>
      </trkpt>
      <trkpt lat="44.85441" lon="0.63672">
        <ele>51.5</ele>
        <time>2011-10-16T05:13:25Z</time>
      </trkpt>
      <trkpt lat="44.85367" lon="0.6348">
        <ele>46.7</ele>
        <time>2011-10-16T05:13:25Z</time>
      </trkpt>
      <trkpt lat="44.853" lon="0.63268">
        <ele>53.6</ele>
        <time>2011-10-16T05:13:25Z</time>
      </trkpt>
      <trkpt lat="44.854" lon="0.63098">
        <ele>61.2</ele>
        <time>2011-10-16T05:13:25Z</time>
      </trkpt>
      <trkpt lat="44.85481" lon="0.62954">
        <ele>66.6</ele>
        <time>2011-10-16T05:13:25Z</time>
      </trkpt>
      <trkpt lat="44.85655" lon="0.63031">
        <ele>75.5</ele>
        <time>2011-10-16T05:13:25Z</time>
      </trkpt>
      <trkpt lat="44.85822" lon="0.62974">
        <ele>77</ele>
        <time>2011-10-16T05:13:25Z</time>
      </trkpt>
      <trkpt lat="44.85974" lon="0.629">
        <ele>71.4</ele>
        <time>2011-10-16T05:13:25Z</time>
      </trkpt>
      <trkpt lat="44.86127" lon="0.62831">
        <ele>70.7</ele>
        <time>2011-10-16T05:13:25Z</time>
      </trkpt>
      <trkpt lat="44.86273" lon="0.62733">
        <ele>76.5</ele>
        <time>2011-10-16T05:13:25Z</time>
      </trkpt>
      <trkpt lat="44.863" lon="0.62566">
        <ele>96.9</ele>
        <time>2011-10-16T05:13:25Z</time>
      </trkpt>
      <trkpt lat="44.86255" lon="0.62364">
        <ele>106.3</ele>
        <time>2011-10-16T05:13:25Z</time>
      </trkpt>
      <trkpt lat="44.86281" lon="0.62147">
        <ele>103.8</ele>
        <time>2011-10-16T05:13:25Z</time>
      </trkpt>
      <trkpt lat="44.86392" lon="0.61966">
        <ele>111</ele>
        <time>2011-10-16T05:13:25Z</time>
      </trkpt>
      <trkpt lat="44.86486" lon="0.61787">
        <ele>114.3</ele>
        <time>2011-10-16T05:13:25Z</time>
      </trkpt>
      <trkpt lat="44.86538" lon="0.61639">
        <ele>115</ele>
        <time>2011-10-16T05:13:25Z</time>
      </trkpt>
      <trkpt lat="44.86469" lon="0.61434">
        <ele>122.4</ele>
        <time>2011-10-16T05:13:25Z</time>
      </trkpt>
      <trkpt lat="44.86495" lon="0.61218">
        <ele>129</ele>
        <time>2011-10-16T05:13:25Z</time>
      </trkpt>
      <trkpt lat="44.86576" lon="0.61012">
        <ele>126.4</ele>
        <time>2011-10-16T05:13:25Z</time>
      </trkpt>
      <trkpt lat="44.86705" lon="0.60854">
        <ele>107.5</ele>
        <time>2011-10-16T05:13:25Z</time>
      </trkpt>
      <trkpt lat="44.86718" lon="0.60653">
        <ele>106.1</ele>
        <time>2011-10-16T05:13:25Z</time>
      </trkpt>
      <trkpt lat="44.86786" lon="0.6044">
        <ele>108.9</ele>
        <time>2011-10-16T05:13:25Z</time>
      </trkpt>
      <trkpt lat="44.86841" lon="0.60238">
        <ele>109.3</ele>
        <time>2011-10-16T05:13:25Z</time>
      </trkpt>
      <trkpt lat="44.86797" lon="0.60033">
        <ele>93.9</ele>
        <time>2011-10-16T05:13:25Z</time>
      </trkpt>
      <trkpt lat="44.86848" lon="0.59859">
        <ele>81.1</ele>
        <time>2011-10-16T05:13:25Z</time>
      </trkpt>
      <trkpt lat="44.86987" lon="0.5998">
        <ele>84</ele>
        <time>2011-10-16T05:13:25Z</time>
      </trkpt>
      <trkpt lat="44.87145" lon="0.59953">
        <ele>93.4</ele>
        <time>2011-10-16T05:13:25Z</time>
      </trkpt>
      <trkpt lat="44.87249" lon="0.5981">
        <ele>101.9</ele>
        <time>2011-10-16T05:13:25Z</time>
      </trkpt>
      <trkpt lat="44.87359" lon="0.59722">
        <ele>108</ele>
        <time>2011-10-16T05:13:25Z</time>
      </trkpt>
      <trkpt lat="44.87358" lon="0.59494">
        <ele>117.3</ele>
        <time>2011-10-16T05:13:25Z</time>
      </trkpt>
      <trkpt lat="44.87322" lon="0.59289">
        <ele>119.6</ele>
        <time>2011-10-16T05:13:25Z</time>
      </trkpt>
      <trkpt lat="44.87275" lon="0.59075">
        <ele>123</ele>
        <time>2011-10-16T05:13:25Z</time>
      </trkpt>
      <trkpt lat="44.87192" lon="0.58891">
        <ele>121.1</ele>
        <time>2011-10-16T05:13:25Z</time>
      </trkpt>
      <trkpt lat="44.87186" lon="0.5869">
        <ele>116.2</ele>
        <time>2011-10-16T05:13:25Z</time>
      </trkpt>
      <trkpt lat="44.87038" lon="0.5859">
        <ele>111.9</ele>
        <time>2011-10-16T05:13:25Z</time>
      </trkpt>
      <trkpt lat="44.87085" lon="0.58457">
        <ele>118.7</ele>
        <time>2011-10-16T05:13:25Z</time>
      </trkpt>
      <trkpt lat="44.87213" lon="0.58303">
        <ele>133.3</ele>
        <time>2011-10-16T05:13:25Z</time>
      </trkpt>
      <trkpt lat="44.87372" lon="0.58232">
        <ele>130.7</ele>
        <time>2011-10-16T05:13:25Z</time>
      </trkpt>
      <trkpt lat="44.87517" lon="0.58124">
        <ele>130.5</ele>
        <time>2011-10-16T05:13:25Z</time>
      </trkpt>
      <trkpt lat="44.87675" lon="0.58074">
        <ele>129.7</ele>
        <time>2011-10-16T05:13:25Z</time>
      </trkpt>
      <trkpt lat="44.87834" lon="0.57997">
        <ele>123.1</ele>
        <time>2011-10-16T05:13:25Z</time>
      </trkpt>
      <trkpt lat="44.8795" lon="0.57864">
        <ele>120.8</ele>
        <time>2011-10-16T05:13:25Z</time>
      </trkpt>
      <trkpt lat="44.88005" lon="0.57552">
        <ele>118.9</ele>
        <time>2011-10-16T05:13:25Z</time>
      </trkpt>
      <trkpt lat="44.88147" lon="0.57428">
        <ele>110.6</ele>
        <time>2011-10-16T05:13:25Z</time>
      </trkpt>
      <trkpt lat="44.8807" lon="0.57267">
        <ele>113.9</ele>
        <time>2011-10-16T05:13:25Z</time>
      </trkpt>
      <trkpt lat="44.87942" lon="0.57115">
        <ele>118.1</ele>
        <time>2011-10-16T05:13:25Z</time>
      </trkpt>
      <trkpt lat="44.87836" lon="0.56947">
        <ele>114.7</ele>
        <time>2011-10-16T05:13:25Z</time>
      </trkpt>
      <trkpt lat="44.87705" lon="0.56831">
        <ele>112.9</ele>
        <time>2011-10-16T05:13:25Z</time>
      </trkpt>
      <trkpt lat="44.8757" lon="0.56708">
        <ele>111</ele>
        <time>2011-10-16T05:13:25Z</time>
      </trkpt>
      <trkpt lat="44.8744" lon="0.56566">
        <ele>104.7</ele>
        <time>2011-10-16T05:13:25Z</time>
      </trkpt>
      <trkpt lat="44.87295" lon="0.56443">
        <ele>97.6</ele>
        <time>2011-10-16T05:13:25Z</time>
      </trkpt>
      <trkpt lat="44.87181" lon="0.56294">
        <ele>89.3</ele>
        <time>2011-10-16T05:13:25Z</time>
      </trkpt>
      <trkpt lat="44.87129" lon="0.56092">
        <ele>83.6</ele>
        <time>2011-10-16T05:13:25Z</time>
      </trkpt>
      <trkpt lat="44.87105" lon="0.55883">
        <ele>87.6</ele>
        <time>2011-10-16T05:13:25Z</time>
      </trkpt>
      <trkpt lat="44.87031" lon="0.55677">
        <ele>90.7</ele>
        <time>2011-10-16T05:13:25Z</time>
      </trkpt>
      <trkpt lat="44.86938" lon="0.55481">
        <ele>91.8</ele>
        <time>2011-10-16T05:13:25Z</time>
      </trkpt>
      <trkpt lat="44.86931" lon="0.55332">
        <ele>91.1</ele>
        <time>2011-10-16T05:13:25Z</time>
      </trkpt>
      <trkpt lat="44.87023" lon="0.55217">
        <ele>95.5</ele>
        <time>2011-10-16T05:13:25Z</time>
      </trkpt>
      <trkpt lat="44.86935" lon="0.55041">
        <ele>93.3</ele>
        <time>2011-10-16T05:13:25Z</time>
      </trkpt>
      <trkpt lat="44.86809" lon="0.54911">
        <ele>91.1</ele>
        <time>2011-10-16T05:13:25Z</time>
      </trkpt>
      <trkpt lat="44.8668" lon="0.54813">
        <ele>86.5</ele>
        <time>2011-10-16T05:13:25Z</time>
      </trkpt>
      <trkpt lat="44.86589" lon="0.54685">
        <ele>83.7</ele>
        <time>2011-10-16T05:13:25Z</time>
      </trkpt>
      <trkpt lat="44.86536" lon="0.54489">
        <ele>81</ele>
        <time>2011-10-16T05:13:25Z</time>
      </trkpt>
      <trkpt lat="44.86512" lon="0.54298">
        <ele>77.5</ele>
        <time>2011-10-16T05:13:25Z</time>
      </trkpt>
      <trkpt lat="44.86484" lon="0.54135">
        <ele>72.6</ele>
        <time>2011-10-16T05:13:25Z</time>
      </trkpt>
      <trkpt lat="44.86469" lon="0.54102">
        <ele>73</ele>
        <time>2011-10-16T05:13:25Z</time>
      </trkpt>
      <trkpt lat="44.8647" lon="0.541">
        <ele>73.2</ele>
        <time>2011-10-16T05:13:25Z</time>
      </trkpt>
      <trkpt lat="44.8647" lon="0.54098">
        <ele>73.2</ele>
        <time>2011-10-16T05:13:25Z</time>
      </trkpt>
      <trkpt lat="44.8647" lon="0.54096">
        <ele>73.3</ele>
        <time>2011-10-16T05:13:25Z</time>
      </trkpt>
      <trkpt lat="44.86469" lon="0.54093">
        <ele>73.3</ele>
        <time>2011-10-16T05:13:25Z</time>
      </trkpt>
      <trkpt lat="44.86469" lon="0.5409">
        <ele>73.4</ele>
        <time>2011-10-16T05:13:25Z</time>
      </trkpt>
      <trkpt lat="44.86468" lon="0.54086">
        <ele>73.5</ele>
        <time>2011-10-16T05:13:25Z</time>
      </trkpt>
      <trkpt lat="44.86467" lon="0.54082">
        <ele>73.4</ele>
        <time>2011-10-16T05:13:25Z</time>
      </trkpt>
      <trkpt lat="44.86467" lon="0.54078">
        <ele>73.2</ele>
        <time>2011-10-16T05:13:25Z</time>
      </trkpt>
      <trkpt lat="44.86469" lon="0.54073">
        <ele>73.3</ele>
        <time>2011-10-16T05:13:25Z</time>
      </trkpt>
      <trkpt lat="44.8647" lon="0.5407">
        <ele>73.3</ele>
        <time>2011-10-16T05:13:25Z</time>
      </trkpt>
      <trkpt lat="44.86472" lon="0.54065">
        <ele>73.3</ele>
        <time>2011-10-16T05:13:25Z</time>
      </trkpt>
      <trkpt lat="44.86474" lon="0.5406">
        <ele>73.2</ele>
        <time>2011-10-16T05:13:25Z</time>
      </trkpt>
      <trkpt lat="44.86479" lon="0.54057">
        <ele>73.3</ele>
        <time>2011-10-16T05:13:25Z</time>
      </trkpt>
      <trkpt lat="44.86481" lon="0.54053">
        <ele>73</ele>
        <time>2011-10-16T05:13:25Z</time>
      </trkpt>
      <trkpt lat="44.86483" lon="0.54049">
        <ele>72.6</ele>
        <time>2011-10-16T05:13:25Z</time>
      </trkpt>
      <trkpt lat="44.86486" lon="0.54048">
        <ele>72.7</ele>
        <time>2011-10-16T05:13:25Z</time>
      </trkpt>
      <trkpt lat="44.86488" lon="0.5405">
        <ele>73</ele>
        <time>2011-10-16T05:13:25Z</time>
      </trkpt>
      <trkpt lat="44.86491" lon="0.54048">
        <ele>73</ele>
        <time>2011-10-16T05:13:25Z</time>
      </trkpt>
      <trkpt lat="44.86493" lon="0.54047">
        <ele>73</ele>
        <time>2011-10-16T05:13:25Z</time>
      </trkpt>
      <trkpt lat="44.86495" lon="0.54047">
        <ele>73.1</ele>
        <time>2011-10-16T05:13:25Z</time>
      </trkpt>
      <trkpt lat="44.86497" lon="0.54047">
        <ele>73.2</ele>
        <time>2011-10-16T05:13:25Z</time>
      </trkpt>
      <trkpt lat="44.86497" lon="0.54047">
        <ele>73.2</ele>
        <time>2011-10-16T05:13:25Z</time>
      </trkpt>
    </trkseg>
  </trk>
</gpx>